Location: Caucaguita
(10.3578°N, 66.8025°W)
Time: 02:28:47
(UTC+00:00)

CAT/Thesee - Pass Details

Date: 18 November 2025
Orbit: 291 x 25157 km, 10.4° (Epoch: 08 December)

Event Time Altitude Azimuth Distance (km) Brightness Sun altitude
Rises 22:25:29 0° 263° (W) 3,162 9.7 -6.4°
Reaches altitude 10° 22:28:34 10° 261° (W) 1,502 7.7 -7.2°
Maximum altitude 22:31:11 71° 177° (S) 314 2.7 -7.8°
Enters shadow 22:33:07 11° 91° (E) 1,111 4.8 -8.2°
